{"data":{"norad_id":66121,"intl_designator":"2025-237H","name":"STARLINK-35631","alt_names":[],"object_type":"PAYLOAD","status":"ACTIVE","operator":null,"country":"US","launch_date":"2025-10-22","launch_site_code":"AFWTR","launch_vehicle":null,"mission":null,"orbit_class":"UNKNOWN","rcs_meters":null,"size_class":null,"mass_kg":null,"dimensions":null,"purposes":["comms"],"wikipedia_slug":null,"has_3d_model":false,"image_url":null,"decayed_at":null,"tle_current":{"epoch":"2026-05-25T00:23:27.087936Z","epoch_age_seconds":73963,"freshness":"FRESH","line1":"1 66121U 25237H   26145.01628574  .00018186  00000+0  62462-3 0  9992","line2":"2 66121  53.1582  45.2941 0000900  72.9361 287.1739 15.30199908 34294","mean_motion":15.30199908,"eccentricity":9.0e-5,"inclination_deg":53.1582,"raan_deg":45.2941,"arg_perigee_deg":72.9361,"mean_anomaly_deg":287.1739,"bstar":0.00062462,"rev_number":3429,"period_min":94.105351364326,"perigee_km":474.59854240378,"apogee_km":475.83214582572,"semimajor_km":6853.3523441148,"source":"CELESTRAK","updated_at":"2026-05-25T13:38:21.062733Z"}}}